Tracking 29892 objects as of 21-Nov-2024
HD Live streaming from Space Station
objects crossing your sky now

STARLINK-31020

Track STARLINK-31020 now!
10-day predictions
STARLINK-31020 is classified as:


NORAD ID: 58509
Int'l Code: 2023-191B
Perigee: 565.4 km
Apogee: 567.0 km
Inclination: 43.0 °
Period: 95.8 minutes
Semi major axis: 6937 km
RCS: Unknown
Launch date: December 7, 2023
Source: United States (US)
Launch site: AIR FORCE EASTERN TEST RANGE (AFETR)
Your satellite tracking list
Your tracking list is empty




NASA's NSSDC Master Catalog

Two Line Element Set (TLE):
1 58509U 23191B   24325.59895417  .00001467  00000-0  12364-3 0  9994
2 58509  43.0028 163.9510 0001173 271.2820  88.7888 15.02540162 54018
Source of the keplerian elements: AFSPC